Home   Weather   New Washington   Past weeks
Flag for USA

Past Weather in New Washington, Indiana, USA — Yesterday and Last 2 Weeks

Now
68 °F

Fog.


Feels Like: 68 °F
Forecast: 87 / 68 °F
Wind: 3 mph from Southeast

Location: Standiford Field

Current Time: May 27, 2019 at 5:26:58 am

Latest Report: May 27, 2019 at 5:14 am


Visibility: 2 mi

Pressure: 30.02 "Hg

Humidity: 93%

Dew Point: 66 °F

Location of New WashingtonLocation

Past Weather in New Washington — Graph

°F

New Washington Temperature Yesterday

Maximum temperature yesterday: 88 °F (at 1:56 pm)
Minimum temperature yesterday: 71 °F (at 11:56 pm)
Average temperature yesterday: 76 °F

High & Low Weather Summary for the Past Weeks

 TemperatureHumidityPressure
High90 °F (May 23, 2:56 pm)93% (May 12, 5:56 am)30.17 "Hg (May 12, 5:56 am)
Low48 °F (May 14, 6:56 am)32% (May 14, 4:56 pm)29.72 "Hg (May 12, 4:56 am)
Average71 °F66%29.96 "Hg
* Reported May 12 4:56 am — May 27 4:14 am, New Washington. Weather by CustomWeather, © 2019

Note: Actual official high and low records may vary slightly from our data, if they occured in-between our weather recording intervals... More about our weather records

Advertising

New Washington Weather History for the Previous 24 Hours

Scroll right to see more
 ConditionsComfort  
Time TempWeatherWind HumidityBarometerVisibility
4:14 am
Mon, May 27
68 °FFog.No wind93%30.02 "Hg2 mi
3:27 am69 °FFog.No wind90%30.03 "Hg5 mi
2:56 am69 °FFog.No wind93%30.02 "Hg6 mi
1:56 am71 °FPassing clouds.3 mph90%30.02 "Hg10 mi
12:56 am71 °FOvercast.No wind90%30.03 "Hg10 mi
11:56 pm
Sun, May 26
71 °FPassing clouds.5 mph90%30.03 "Hg10 mi
10:56 pm72 °FPassing clouds.No wind87%30.02 "Hg10 mi
9:56 pm72 °FPassing clouds.6 mph87%30.02 "Hg10 mi
8:56 pm73 °FPassing clouds.6 mph84%30.01 "Hg10 mi
7:56 pm74 °FScattered clouds.5 mph82%30.00 "Hg10 mi
6:56 pm73 °FBroken clouds.7 mph88%30.02 "Hg10 mi
6:22 pm73 °FBroken clouds.7 mph88%30.04 "Hg10 mi
5:59 pm73 °FThundershowers. Mostly cloudy.7 mph84%30.05 "Hg3 mi
5:06 pm73 °FLight rain. Broken clouds.7 mph88%30.06 "Hg10 mi
4:56 pm73 °FThunderstorms. Fog.6 mph88%30.06 "Hg4 mi
4:32 pm73 °FThundershowers. Mostly cloudy.7 mph88%30.06 "Hg10 mi
4:23 pm72 °FLight rain. Mostly cloudy.10 mph87%30.05 "Hg10 mi
3:56 pm73 °FThunderstorms. Cloudy.12 mph84%30.06 "Hg4 mi
3:36 pm74 °FThundershowers. Mostly cloudy.8 mph82%30.06 "Hg10 mi
2:56 pm73 °FThunderstorms. Cloudy.14 mph81%30.04 "Hg7 mi
2:35 pm75 °FStrong thunderstorms. Cloudy.26 mph74%30.04 "Hg2 mi
1:56 pm88 °FBroken clouds.14 mph50%29.99 "Hg10 mi
12:56 pm87 °FBroken clouds.12 mph50%30.03 "Hg10 mi
11:56 am86 °FPartly sunny.8 mph55%30.05 "Hg10 mi
10:56 am83 °FPartly sunny.9 mph61%30.05 "Hg10 mi
9:56 am82 °FBroken clouds.9 mph60%30.07 "Hg10 mi
8:56 am79 °FBroken clouds.10 mph62%30.07 "Hg10 mi
7:56 am77 °FPartly sunny.8 mph64%30.06 "Hg10 mi
6:56 am75 °FBroken clouds.6 mph69%30.06 "Hg10 mi
5:56 am75 °FPassing clouds.5 mph66%30.05 "Hg10 mi
Weather by CustomWeather, © 2019

See weather overview